Zurück zum Katalog

COSMOS 862 DEB

LostHEO
NORAD 9890·DEBRIS·🇷🇺 Russia

Gestartet Oct 22, 1976 von Plesetsk Cosmodrome

Loading…

Nächste Überflüge (nächste 24 Stunden)

TLE

VeraltetSource: Space-Track

Epoche: Apr 10, 1979, 07:23 UTC

1  9890U 76105G   79100.30766765 +.00000735 +00000-0 +10000-3 0  9991
2  9890 065.8544 001.2865 7047681 309.9181 003.8665 02.00350335018082

Verfolge COSMOS 862 DEB in Echtzeit mit AllMySat

Download on the App Store